sat.trackr.live / text

‹ back to catalog

STARLINK-32470

NORAD 62115 · 2024-222B

PAYLOAD ACTIVE UNKNOWN

§ Identity

Operator
Country
US
Launch date
2024-11-27
Launch site
AFETR
Launch vehicle
Mass (kg)
RCS (m²)

Purposes: comms

External: N2YO · Heavens-Above · Gunter

§ Orbital elements

Epoch: 2026-09-21T22:21:13.777344Z

Period
94.27 min
Inclination
42.9994°
Eccentricity
0.0000644
Mean motion
15.27585403 rev/d
Perigee alt
482.6 km
Apogee alt
483.5 km
Semi-major
6,861.2 km
B*
3.7156e-4
RAAN
107.7411°
Arg perigee
297.6854°
Mean anomaly
62.3932°
Rev number
10,291

§ Raw data

STARLINK-324701 62115U 24222B   26264.93140946  .00009978  00000+0  37156-3 0  99902 62115  42.9994 107.7411 0000644 297.6854  62.3932 15.27585403102918

JSON: /api/v1/satellites/62115 · /tle

For live sub-satellite position, see the globe view (requires WebGL).

§ Visibility from observer

Set your observer location to see the next 7 days of passes ≥ 10°. The values pass through the URL so the page stays shareable.

No JS? Fill the form by hand. The geolocation button needs JavaScript.